Vernal, UT

2:36 AM MST on February 06, 2016 (GMT -0700)
Vernal

Weather History for KVEL - July, 2013

Change the Weather History Date:

Monday, July 29, 2013

  Actual Average Record
Temperature  
Mean Temperature 72 °F 73 °F  
Max Temperature 85 °F 88 °F 100 °F (1934)
Min Temperature 59 °F 58 °F 36 °F (1950)
Degree Days  
Heating Degree Days 0 0  
Month to date heating degree days 0 2  
Since 1 June heating degree days 15 74  
Since 1 July heating degree days 0 2  
Cooling Degree Days 7 8  
Month to date cooling degree days 322 210  
Year to date cooling degree days 500 301  
Since 1 June cooling degree days 492 292  
Growing Degree Days 22 (Base 50)    
Moisture  
Dew Point 50 °F    
Average Humidity 53    
Maximum Humidity 84    
Minimum Humidity 22    
Precipitation  
Precipitation 0.29 in 0.03 in 0.56 in (1929)
Month to date precipitation 0.59 0.59  
Year to date precipitation 4.38 4.80  
Sea Level Pressure  
Sea Level Pressure 29.98 in    
Wind  
Wind Speed 5 mph (NW)    
Max Wind Speed 24 mph    
Max Gust Speed 33 mph    
Visibility 10 miles    
Events Rain , Thunderstorm    
T = Trace of Precipitation, MM = Missing Value Source: NWS Daily Summary

Daily Weather History Graph

Daily Weather History Graph

Search for Another Location

Airport or City:

Trip Planner

Search our weather history database for the weather conditions in past years. The results will help you decide how hot, cold, wet, or windy it might be!

Date:

Astronomy

Jul. 29, 2013 Rise Set
Actual Time 6:12 AM MDT 8:35 PM MDT
Civil Twilight 5:42 AM MDT 9:06 PM MDT
Nautical Twilight 5:03 AM MDT 9:44 PM MDT
Astronomical Twilight 4:21 AM MDT 10:26 PM MDT
Moon No Moon Rise 1:59 PM MDT (7/29)
Length of Visible Light 15h 24m
Length of Day
14h 22m
Waning Gibbous, 50% of the Moon is Illuminated
Jul 29
Waning Gibbous
Aug 6
New
Aug 14
First Quarter
Aug 20
Full
Aug 28
Last Quarter

Hourly Weather History & Observations

Time (MDT) Temp. Dew Point Humidity Pressure Visibility Wind Dir Wind Speed Gust Speed Precip Events Conditions
12:53 AM 63.0 °F 52.0 °F 67% 29.86 in 10.0 mi West 3.5 mph - N/A   Clear
1:53 AM 64.0 °F 51.1 °F 63% 29.86 in 10.0 mi Calm Calm - N/A   Clear
2:53 AM 60.1 °F 52.0 °F 75% 29.88 in 10.0 mi WNW 5.8 mph - N/A   Clear
3:53 AM 59.0 °F 52.0 °F 78% 29.89 in 10.0 mi South 3.5 mph - N/A   Clear
4:53 AM 61.0 °F 50.0 °F 67% 29.90 in 10.0 mi West 6.9 mph - N/A   Clear
5:53 AM 60.1 °F 51.1 °F 72% 29.90 in 10.0 mi Calm Calm - N/A   Clear
6:53 AM 59.0 °F 52.0 °F 78% 29.94 in 10.0 mi West 3.5 mph - N/A   Clear
7:53 AM 64.0 °F 52.0 °F 65% 29.95 in 10.0 mi Calm Calm - N/A   Clear
8:53 AM 68.0 °F 51.1 °F 55% 29.96 in 10.0 mi ESE 4.6 mph - N/A   Clear
9:53 AM 68.0 °F 50.0 °F 52% 29.97 in 10.0 mi SE 3.5 mph - N/A   Clear
10:53 AM 71.1 °F 50.0 °F 47% 29.96 in 10.0 mi Calm Calm - N/A   Clear
11:53 AM 73.0 °F 51.1 °F 46% 29.97 in 10.0 mi NW 4.6 mph - N/A   Clear
1:53 PM 79.0 °F 46.0 °F 31% 29.92 in 10.0 mi WSW 5.8 mph - N/A   Clear
2:53 PM 82.0 °F 45.0 °F 27% 29.91 in 10.0 mi Variable 5.8 mph - N/A   Clear
3:53 PM 82.9 °F 45.0 °F 26% 29.90 in 10.0 mi Variable 5.8 mph - N/A   Clear
4:53 PM 84.9 °F 45.0 °F 25% 29.88 in 10.0 mi NE 5.8 mph - N/A   Partly Cloudy
5:53 PM 82.9 °F 44.1 °F 25% 29.88 in 10.0 mi South 5.8 mph - N/A   Clear
6:53 PM 82.9 °F 39.9 °F 22% 29.88 in 10.0 mi NE 5.8 mph - N/A   Partly Cloudy
7:53 PM 79.0 °F 43.0 °F 28% 29.91 in 10.0 mi East 5.8 mph - N/A   Mostly Cloudy
8:10 PM 75.2 °F 50.0 °F 41% 30.14 in 10.0 mi WSW 24.2 mph 33.4 mph 0.00 in Rain , Thunderstorm Light Thunderstorms and Rain
8:26 PM 62.6 °F 53.6 °F 72% 30.18 in 2.5 mi WNW 17.3 mph 31.1 mph 0.17 in Rain , Thunderstorm Heavy Thunderstorms and Rain
8:38 PM 62.6 °F 55.4 °F 77% 30.20 in 6.0 mi WNW 13.8 mph 20.7 mph 0.24 in Rain , Thunderstorm Thunderstorms and Rain
8:53 PM 63.0 °F 55.0 °F 75% 30.05 in 8.0 mi NW 12.7 mph 23.0 mph 0.26 in Rain , Thunderstorm Thunderstorms and Rain
9:06 PM 62.6 °F 55.4 °F 77% 30.21 in 10.0 mi NNW 13.8 mph 21.9 mph 0.01 in Rain Light Rain
9:53 PM 62.1 °F 55.0 °F 78% 30.08 in 10.0 mi ESE 6.9 mph - 0.03 in Rain Light Rain
10:53 PM 60.1 °F 55.9 °F 86% 30.08 in 10.0 mi NE 8.1 mph - 0.00 in   Mostly Cloudy
11:53 PM 61.0 °F 55.0 °F 81% 30.08 in 10.0 mi ENE 3.5 mph - N/A   Scattered Clouds